www.pogodaiklimat.ru

Погода и климат >> Архив погоды >> Украина >> Боходухов


ПОГОДА в Боходухове

  • Прогноз погоды в Боходухове
  • Монитор погоды в Боходухове

АРХИВ ПОГОДЫ в Боходухове

Время (UTC), дата Ветер
(напр.,м/с)
 
Видим.   Явления Облачность Т
(С)
Тd
(С)
f
(%)
Тe
(С)
Тes
(С)
Комфортность P
(гПа)
Po
(гПа)
Тmin
(С)
Tmax
(С)
R
(мм)
R24
(мм)
S
(см)
15 11.09 ЮВ 3 10 км ясно +25.4 +3.9 25 +25 +25 комфорт 1027.0 1003.4
18 11.09 СВ 2 10 км ясно +21.4 +3.6 31 +22 +22 комфорт 1028.0 1004.1 +28.0
21 11.09 В 2 10 км ясно +18.6 +4.0 38 +19 +19 1028.0 1003.9
00 12.09 В 3 10 км ясно +17.2 +4.2 42 +17 +17 1029.0 1004.7
03 12.09 В 2 10 км 8/8 600 м
[Sc]
+16.2 +5.5 49 +16 +16 1029.0 1004.6
06 12.09 В 2 10 км 8/4 600 м
[Sc Ac trans]
+18.3 +6.5 46 +19 +19 1029.0 1004.8 +16.1
09 12.09 ЮВ 3 10 км 8/3 1000 м
[Cu hum Ac trans]
+25.7 +6.8 30 +26 +26 жарко 1028.0 1004.4
12 12.09 В 3 10 км 8/6 1000 м
[Cu med, cong Ac trans]
+26.5 +6.0 27 +26 +26 жарко 1027.0 1003.5
15 12.09 В 2 10 км 4/3 1000 м
[Sc diur, vesp Ci fib]
+25.5 +4.0 25 +25 +25 комфорт 1026.0 1002.5
18 12.09 В 1 10 км 3/0
[Ac trans]
+21.9 +6.9 38 +23 +23 комфорт 1026.0 1002.2 +28.1
21 12.09 В 2 10 км 8/0
[Ac trans]
+20.8 +6.7 40 +22 +22 комфорт 1026.0 1002.1
00 13.09 ЮВ 1 10 км 9/5 600 м
[Sc Ac trans]
+19.1 +6.9 45 +21 +21 комфорт 1026.0 1002.0
03 13.09 Ю 1 10 км 8/0
[Ac trans]
+17.7 +7.4 51 +19 +19 1025.0 1000.9
06 13.09 ЮЗ 1 10 км 8/0
[Ac trans]
+20.4 +7.7 44 +23 +23 комфорт 1026.0 1002.1 +17.5
09 13.09 ЮЗ 3 10 км 8/3 1000 м
[Sc Ci fib]
+26.8 +6.2 27 +26 +26 жарко 1024.0 1000.6
12 13.09 З 2 10 км 6/6 1000 м
[Cu hum]
+27.5 +6.3 26 +27 +29 жарко 1022.0 998.7
15 13.09 ЮЗ 1 10 км 4/0
[Ac trans]
+27.0 +4.7 24 +26 +26 жарко 1021.0 997.7
18 13.09 ЮЗ 1 10 км 3/0
[Ac trans]
+21.2 +6.7 39 +22 +22 комфорт 1021.0 997.2 +28.9
21 13.09 ЮЗ 2 10 км ясно +20.6 +6.5 40 +22 +22 комфорт 1020.0 996.2
00 14.09 З 4 10 км ясно +18.8 +6.6 45 +19 +19 1020.0 996.1
03 14.09 СЗ 2 10 км 3/0
[Ci fib]
+16.9 +6.4 50 +17 +17 1019.0 994.9
06 14.09 ЮЗ 1 10 км 10/0
[Ac trans Ci]
+15.9 +8.6 62 +17 +17 1020.0 995.9 +13.4
09 14.09 З 5 10 км 10/3 600 м
[Sc Ac trans Ci]
+21.2 +8.1 43 +22 +22 комфорт 1019.0 995.3
12 14.09 СЗ 6 10 км 10/6 600 м
[Sc Ac und]
+19.3 +10.2 56 +20 +20 1018.9 995.8
15 14.09 СЗ 3 10 км 8/0
[Ac trans]
+17.9 +7.9 52 +18 +18 1019.0 995.0
18 14.09 СЗ 3 10 км 3/0
[Ci fib]
+14.6 +4.6 51 +14 +14 1021.0 996.7 +23.7
21 14.09 С 3 10 км ясно +11.3 +3.3 58 +10 +10 1023.0 998.4
00 15.09 СЗ 3 10 км ясно +9.3 +2.6 63 +7 +7 1023.0 998.2
03 15.09 СЗ 2 10 км 8/3 600 м
[Sc Ci]
+8.1 +2.3 67 +6 +6 1023.3 999.1
06 15.09 СЗ 4 10 км ясно +12.4 +3.1 53 +11 +13 1024.0 999.4 +6.7
09 15.09 СЗ 5 10 км 5/3 1000 м
[Cu hum Ci fib]
+17.1 +2.9 39 +16 +20 1022.4 999.0
12 15.09 З 4 10 км 4/3 1000 м
[Cu hum Ci fib]
+19.5 +0.5 28 +20 +23 1021.0 997.1
15 15.09 З 4 10 км 5/0
[Ci fib]
+18.3 -0.0 29 +18 +18 1019.0 995.0
18 15.09 З 2 10 км 4/0
[Ci fib]
+14.0 +2.3 45 +14 +14 1019.0 994.7 +21.1
21 15.09 З 3 10 км 8/0
[Ac trans]
+12.0 +1.6 49 +11 +11 1018.0 993.5
00 16.09 ЮЗ 4 10 км 9/0
[Ac trans Ci]
+11.4 +2.7 55 +9 +9 1016.0 991.5
03 16.09 ЮЗ 4 10 км 9/3 600 м
[Sc Ci]
+10.5 +4.0 64 +8 +8 1013.0 988.5
06 16.09 ЮЗ 7 10 км 5/0
[Ci fib]
+15.1 +4.8 50 +13 +14 1012.0 988.0 +10.0
09 16.09 З 8 10 км 4/0
[Ci fib]
+20.6 +5.0 36 +21 +22 комфорт 1010.0 986.4
12 16.09 З 8 10 км 8/8 600 м
[Sc]
+22.4 +5.8 34 +23 +23 комфорт 1008.0 984.6
15 16.09 З 5 10 км 9/9 600 м
[Sc]
+21.9 +7.3 39 +23 +23 комфорт 1007.0 983.6
18 16.09 СЗ 3 10 км 3/0
[Ci fib]
+18.3 +7.4 49 +19 +19 1008.0 984.3 +25.1
21 16.09 З 2 10 км 9/0
[Ac trans]
+15.6 +6.9 56 +16 +16 1008.0 984.1
00 17.09 З 3 10 км 9/9 600 м
[Sc]
+14.2 +5.5 56 +13 +13 1007.0 983.0
03 17.09 З 3 10 км 6/3 600 м
[Sc Ci fib]
+12.3 +5.0 61 +11 +11 1007.0 982.8
06 17.09 З 4 10 км 6/3
[Sc Ci fib]
+12.7 +2.8 51 +11 +12 1008.0 983.8 +11.6
09 17.09 З 7 10 км 9/4 600 м
[Sc Ac trans]
+16.2 +2.2 39 +15 +15 1008.0 984.1
12 17.09 З 4 10 км 8/3 600 м
[Sc Ci fib]
+18.8 +2.6 34 +19 +19 1006.0 982.4
15 17.09 СЗ 3 10 км 8/5 600 м
[Sc Ac trans]
+17.6 +2.3 36 +18 +18 1005.0 981.3
18 17.09 СЗ 3 10 км 5/3 600 м
[Sc Ac trans]
+13.8 +3.8 51 +13 +13 1007.0 983.0 +19.4
21 17.09 З 2 10 км 4/0
[Ci fib]
+10.1 +1.5 55 +9 +9 1007.0 982.6
00 18.09 ЮЗ 1 10 км 3/0
[Ci fib]
+9.0 +0.7 56 +9 +9 1006.0 981.6
03 18.09 ЮЗ 2 10 км 8/8 600 м
[Sc]
+8.6 +1.0 59 +7 +7 1003.0 978.6
06 18.09 ЮЗ 4 10 км {дождь} 10/6 600 м
[Sc Ac und]
+11.5 +7.2 75 +9 +9 1003.0 978.9 +8.2 0.0
09 18.09 ЮЗ 7 10 км {дождь} 8/8 600 м
[Cb calv Ac trans]
+13.1 +9.7 80 +10 +10 1001.0 977.1
12 18.09 З 8 10 км {ливн. осадки, дождь} 8/8 600 м
[Cu med, cong]
+14.4 +3.2 47 +12 +12 1002.0 978.1 2

 

Местоположение метеостанции Боходухов (Харьковская область, Украина): широта 50.20 долгота 35.53 высота над уровнем моря 203 м.

В архиве по умолчанию представлена погода в Боходухове за последнюю неделю. Архивные данные за месяц целиком и за предыдущие месяцы, начиная с января 2011 года, Вы можете получить, выбрав интересующий диапазон дат из раскрывающегося списка и нажав кнопку "Ввод!".


*Определитесь, кто Вы:
робот инопланетянин человек

Внимание! Время в таблицах - всемирное. Для получения местного времени необходимо прибавить поправку, которая равна 2 ч.

Смотрите также архив погоды в соседних городах и на ближайших метеорологических станциях:

Погода в Золочеве (Львовская область, Украина) (32 км)
Погода в Коломаке (Харьковская область, Украина) (44 км)
Погода в Харькове (Харьковская область, Украина) (50 км)
Погода в Готне (Белгородская область, Россия) (69 км)
Погода в Лебедине (Сумская область, Украина) (86 км)
Погода в Белгороде (Белгородская область, Россия) (88 км)
Погода в Краснограде (Харьковская область, Украина) (91 км)
Погода в Сумах (Сумская область, Украина) (94 км)
Погода в Полтаве (Полтавская область, Украина) (97 км)
Погода в Комсомольском (Донецкая область, Украина) (98 км)

Пояснения к столбцам:

Ветер - указаны скорость ветра в м/с - средняя за 10 мин, порывы в срок и между сроками (в фигурных скобках) и направление, откуда дует ветер: С - северный, СВ - северо-восточный, В - восточный, ЮВ - юго-восточный, Ю - южный, ЮЗ - юго-западный, З - западный, СЗ - северо-западный.
Видимость - горизонтальная дальность видимости в метрах или километрах. При видимости от 1 до 10 км при отсутствии осадков обычно наблюдается дымка, при ухудшении видимости до 1 км и менее - туман. В сухую погоду видимость может ухудшаться дымом, пылью или мглою.
Явления - указаны атмосферные явления, наблюдавшиеся в срок или в последний час перед сроком; фигурными скобками обозначены явления, наблюдавшиеся между сроками (за 1-3 часа до срока); квадратными скобками обозначены град или гололедные отложения с указанием их диаметра в мм.
Облачность - указаны через наклонную черту общая и нижняя облачность в баллах и высота нижней границы облаков в метрах; квадратными скобками обозначены формы облаков: Ci - перистые, Cs - перисто-слоистые, Cc - перисто-кучевые, Ac - высококучевые, As - высокослоистые, Sc - слоисто-кучевые, Ns - слоисто-дождевые, Cu - кучевые, Cb - кучево-дождевые. Подробнее классификацию облаков см. в Атласе облаков (PDF).
T - Температура воздуха - температура, измеренная на высоте 2 м над землей.
Td - Температура точки росы - температура, при понижении до которой содержащийся в воздухе водяной пар достигнет насыщения.
f - Относительная влажность воздуха - влажноcть воздуха, измеренная на высоте 2 м над землей.
Te - Эффективная температура - температура, которую ощущает одетый по сезону человек в тени. Характеристика душности погоды. При расчете учитывается влияние влажности воздуха и скорости ветра на теплоощущения человека.
Tes - Эффективная температура на солнце - температура, которую ощущает человек, с поправкой на солнечный нагрев. Характеристика знойности погоды. Зависит от высоты солнца над горизонтом, облачности и скорости ветра. Ночью, в пасмурную погоду, а также при ветре 12 м/с и более поправка равна нулю.
P - Атмосферное давление - приведенное к уровню моря атмосферное давление.
Po - Атмосферное давление - измеренное на уровне метеостанции атмосферное давление.
Tmin - Минимальная температура - минимум температуры воздуха на высоте 2 м над землей.
Tmax - Максимальная температура - максимум температуры воздуха на высоте 2 м над землей.
R - Количество осадков - Количество выпавших осадков за период времени, мм. При наведении курсора мыши на число - период времени, за который выпало указанное количество осадков.
R24 - Количество осадков - Количество выпавших осадков за 24 часа, мм.
S - Снежный покров - Высота снежного покрова, см. При наведении курсора мыши на число - состояние снежного покрова и степень покрытия местности в баллах.